EW9945 Weather Reports


Display with metric or nautical units.
time (UTC)temp
F
wind
direction
speed
MPH
gust
MPH
rain 1hr
in
rain 24hr
in
rain mn
in
humidity
%
barometer
mb
20260505054601 62 186 0.0 10.0 0.00 0.00 0.00 61 1005.8
20260505053059 62 121 1.0 6.0 0.00 0.00 0.00 61 1006.0
20260505051557 62 131 1.0 9.0 0.00 0.00 0.00 60 1006.1
20260505041603 63 148 0.0 5.0 0.00 0.00 0.00 58 1006.2
20260505040057 62 94 1.0 6.0 0.00 0.00 0.00 57 1006.1
20260505034555 63 177 1.0 7.0 0.00 0.00 0.00 55 1006.0
20260505033055 63 114 0.0 8.0 0.00 0.00 0.00 54 1005.9
20260505031555 63 195 0.0 2.0 0.00 0.00 0.00 53 1006.1
20260505030110 64 195 0.0 0.0 0.00 0.00 0.00 51 1006.3
20260505024559 64 195 0.0 2.0 0.00 0.00 0.00 50 1006.3
20260505023054 64 194 0.0 3.0 0.00 0.00 0.00 49 1006.3
20260505021553 64 158 0.0 2.0 0.00 0.00 0.00 49 1006.5
20260505020058 64 157 0.0 5.0 0.00 0.00 0.00 47 1006.5
20260505014607 64 117 0.0 4.0 0.00 0.00 0.00 46 1006.4
20260505013056 64 123 0.0 4.0 0.00 0.00 0.00 46 1006.3
20260505011556 65 148 0.0 8.0 0.00 0.00 0.00 45 1006.2
20260505004554 66 31 0.0 5.0 0.00 0.00 0.00 43 1005.8
20260505003059 66 181 0.0 2.0 0.00 0.00 0.00 41 1005.7
20260505001557 67 197 0.0 5.0 0.00 0.00 0.00 38 1005.7
20260505000056 68 235 0.0 7.0 0.00 0.00 0.00 36 1005.5
20260504234550 68 170 0.0 4.0 0.00 0.00 0.00 35 1005.5
20260504233049 68 208 1.0 7.0 0.00 0.00 0.00 35 1005.2
20260504231548 69 61 1.0 9.0 0.00 0.00 0.00 34 1005.2
20260504230050 70 134 0.0 10.0 0.00 0.00 0.00 33 1005.2
20260504224552 70 126 0.0 14.0 0.00 0.00 0.00 31 1005.0
20260504223102 70 130 2.0 17.0 0.00 0.00 0.00 30 1004.9
20260504221551 71 128 1.0 16.0 0.00 0.00 0.00 30 1005.0
20260504220048 71 127 0.0 11.0 0.00 0.00 0.00 29 1004.9
20260504214548 71 201 0.0 11.0 0.00 0.00 0.00 29 1004.9
20260504213047 72 129 1.0 8.0 0.00 0.00 0.00 30 1004.9
20260504211624 71 134 1.0 12.0 0.00 0.00 0.00 31 1005.0
20260504210050 72 169 0.0 7.0 0.00 0.00 0.00 29 1004.9
20260504204545 72 222 3.0 14.0 0.00 0.00 0.00 28 1005.2
20260504203044 72 223 1.0 8.0 0.00 0.00 0.00 26 1005.2
20260504201541 73 342 3.0 12.0 0.00 0.00 0.00 27 1005.4
20260504200042 72 328 0.0 19.0 0.00 0.00 0.00 28 1005.7
20260504194547 73 265 3.0 13.0 0.00 0.00 0.00 28 1006.0
20260504193037 72 299 7.0 18.0 0.00 0.00 0.00 27 1006.3
20260504191536 71 271 3.0 14.0 0.00 0.00 0.00 30 1006.5
20260504190030 70 282 5.0 14.0 0.00 0.00 0.00 32 1006.6
20260504184542 70 101 1.0 15.0 0.00 0.00 0.00 33 1007.1
20260504183027 70 333 2.0 14.0 0.00 0.00 0.00 31 1007.0
20260504181524 70 329 1.0 15.0 0.00 0.00 0.00 33 1007.3
20260504180025 68 269 2.0 18.0 0.00 0.00 0.00 35 1007.5
20260504174519 67 284 2.0 13.0 0.00 0.00 0.00 39 1007.6
20260504173017 66 264 1.0 9.0 0.00 0.00 0.00 40 1007.8
20260504171515 66 348 2.0 11.0 0.00 0.00 0.00 40 1008.1
20260504081503 42 165 0.0 1.0 0.00 0.00 0.00 65 1011.5